| time (UTC) | temp F | wind direction | speed MPH | gust MPH | rain 1hr in | rain 24hr in | rain mn in | humidity % | barometer mb |
| 20260505171140 | 54 | 273 | 2.0 | 6.0 | 0.00 | 0.00 | 0.00 | 40 | 1015.2 |
| 20260505170638 | 55 | 271 | 3.0 | 6.0 | 0.00 | 0.00 | 0.00 | 41 | 1015.4 |
| 20260505170134 | 54 | 257 | 0.0 | 5.0 | 0.00 | 0.00 | 0.00 | 41 | 1015.5 |
| 20260505165629 | 54 | 343 | 3.0 | 6.0 | 0.00 | 0.00 | 0.00 | 40 | 1015.4 |
| 20260505165126 | 53 | 247 | 0.0 | 1.0 | 0.00 | 0.00 | 0.00 | 41 | 1015.5 |
| 20260505164621 | 52 | 192 | 5.0 | 7.0 | 0.00 | 0.00 | 0.00 | 43 | 1015.7 |
| 20260505164119 | 53 | 282 | 5.0 | 8.0 | 0.00 | 0.00 | 0.00 | 42 | 1015.8 |
| 20260505163617 | 52 | 264 | 2.0 | 3.0 | 0.00 | 0.00 | 0.00 | 43 | 1016.0 |
| 20260505163114 | 52 | 200 | 4.0 | 6.0 | 0.00 | 0.00 | 0.00 | 44 | 1016.0 |
| 20260505162611 | 52 | 277 | 3.0 | 8.0 | 0.00 | 0.00 | 0.00 | 45 | 1015.8 |
| 20260505162109 | 51 | 193 | 6.0 | 8.0 | 0.00 | 0.00 | 0.00 | 45 | 1016.0 |
| 20260505161606 | 51 | 248 | 4.0 | 8.0 | 0.00 | 0.00 | 0.00 | 46 | 1016.1 |
| 20260505161103 | 51 | 254 | 3.0 | 5.0 | 0.00 | 0.00 | 0.00 | 46 | 1016.1 |
| 20260505160601 | 51 | 228 | 4.0 | 8.0 | 0.00 | 0.00 | 0.00 | 46 | 1016.3 |
| 20260505153038 | 51 | 303 | 3.0 | 5.0 | 0.00 | 0.00 | 0.00 | 46 | 1016.1 |
| 20260505152534 | 52 | 287 | 7.0 | 10.0 | 0.00 | 0.00 | 0.00 | 43 | 1016.3 |
| 20260505152030 | 51 | 284 | 1.0 | 6.0 | 0.00 | 0.00 | 0.00 | 45 | 1016.0 |
| 20260505151530 | 52 | 308 | 6.0 | 9.0 | 0.00 | 0.00 | 0.00 | 45 | 1016.2 |
| 20260505151028 | 52 | 287 | 4.0 | 7.0 | 0.00 | 0.00 | 0.00 | 46 | 1016.1 |
| 20260505150524 | 51 | 268 | 1.0 | 6.0 | 0.00 | 0.00 | 0.00 | 46 | 1016.1 |
| 20260505140449 | 52 | 334 | 4.0 | 6.0 | 0.00 | 0.00 | 0.00 | 47 | 1016.2 |
| 20260505124903 | 51 | 284 | 1.0 | 5.0 | 0.00 | 0.00 | 0.00 | 48 | 1016.1 |
| 20260505124400 | 50 | 289 | 3.0 | 7.0 | 0.00 | 0.00 | 0.00 | 48 | 1016.5 |
| 20260505123856 | 50 | 273 | 4.0 | 8.0 | 0.00 | 0.00 | 0.00 | 48 | 1016.5 |
| 20260505123353 | 49 | 315 | 5.0 | 7.0 | 0.00 | 0.00 | 0.00 | 47 | 1016.2 |
| 20260505122848 | 48 | 269 | 2.0 | 3.0 | 0.00 | 0.00 | 0.00 | 45 | 1016.3 |
| 20260505122346 | 48 | 286 | 2.0 | 3.0 | 0.00 | 0.00 | 0.00 | 45 | 1016.1 |
| 20260505121843 | 48 | 321 | 1.0 | 2.0 | 0.00 | 0.00 | 0.00 | 45 | 1016.0 |
| 20260505121340 | 48 | 269 | 1.0 | 1.0 | 0.00 | 0.00 | 0.00 | 46 | 1015.8 |
| 20260505120836 | 48 | 259 | 0.0 | 2.0 | 0.00 | 0.00 | 0.00 | 45 | 1016.0 |
| 20260505120332 | 47 | 289 | 1.0 | 3.0 | 0.00 | 0.00 | 0.00 | 45 | 1015.7 |
| 20260505115831 | 47 | 255 | 0.0 | 1.0 | 0.00 | 0.00 | 0.00 | 46 | 1015.6 |
| 20260505115328 | 48 | 267 | 0.0 | 1.0 | 0.00 | 0.00 | 0.00 | 45 | 1015.8 |
| 20260505114826 | 48 | 266 | 1.0 | 1.0 | 0.00 | 0.00 | 0.00 | 44 | 1015.7 |
| 20260505114322 | 48 | 268 | 2.0 | 2.0 | 0.00 | 0.00 | 0.00 | 44 | 1016.0 |
| 20260505113819 | 48 | 272 | 2.0 | 2.0 | 0.00 | 0.00 | 0.00 | 44 | 1016.2 |
| 20260505113315 | 48 | 277 | 1.0 | 2.0 | 0.00 | 0.00 | 0.00 | 44 | 1016.2 |
| 20260505112811 | 48 | 288 | 3.0 | 5.0 | 0.00 | 0.00 | 0.00 | 43 | 1016.2 |
| 20260505112309 | 49 | 253 | 2.0 | 3.0 | 0.00 | 0.00 | 0.00 | 43 | 1016.1 |
| 20260505111804 | 49 | 244 | 3.0 | 5.0 | 0.00 | 0.00 | 0.00 | 42 | 1016.0 |
| 20260505111300 | 49 | 263 | 2.0 | 3.0 | 0.00 | 0.00 | 0.00 | 42 | 1015.7 |
| 20260505110755 | 49 | 257 | 1.0 | 3.0 | 0.00 | 0.00 | 0.00 | 41 | 1016.0 |
| 20260505110254 | 49 | 256 | 1.0 | 1.0 | 0.00 | 0.00 | 0.00 | 42 | 1015.7 |
| 20260505101728 | 50 | 284 | 2.0 | 2.0 | 0.00 | 0.00 | 0.00 | 40 | 1015.7 |
| 20260505101223 | 50 | 262 | 0.0 | 1.0 | 0.00 | 0.00 | 0.00 | 40 | 1015.7 |
| 20260505100720 | 50 | 268 | 0.0 | 2.0 | 0.00 | 0.00 | 0.00 | 39 | 1016.0 |
| 20260505100217 | 51 | 242 | 1.0 | 3.0 | 0.00 | 0.00 | 0.00 | 39 | 1015.7 |
| 20260505095712 | 51 | 289 | 2.0 | 3.0 | 0.00 | 0.00 | 0.00 | 39 | 1015.8 |
| 20260505095211 | 51 | 267 | 2.0 | 5.0 | 0.00 | 0.00 | 0.00 | 39 | 1015.7 |
| 20260505094706 | 51 | 253 | 1.0 | 3.0 | 0.00 | 0.00 | 0.00 | 38 | 1015.5 |
| 20260505094202 | 52 | 312 | 5.0 | 6.0 | 0.00 | 0.00 | 0.00 | 38 | 1015.7 |
| 20260505093659 | 52 | 256 | 3.0 | 8.0 | 0.00 | 0.00 | 0.00 | 38 | 1015.6 |
| 20260505093156 | 51 | 329 | 2.0 | 9.0 | 0.00 | 0.00 | 0.00 | 39 | 1015.8 |
| 20260505092653 | 51 | 258 | 3.0 | 6.0 | 0.00 | 0.00 | 0.00 | 40 | 1015.5 |
| 20260505092152 | 51 | 252 | 3.0 | 6.0 | 0.00 | 0.00 | 0.00 | 40 | 1015.6 |
| 20260505091648 | 51 | 255 | 0.0 | 3.0 | 0.00 | 0.00 | 0.00 | 40 | 1015.7 |
| 20260505091146 | 51 | 312 | 1.0 | 3.0 | 0.00 | 0.00 | 0.00 | 40 | 1016.0 |
| 20260505090644 | 51 | 308 | 2.0 | 5.0 | 0.00 | 0.00 | 0.00 | 40 | 1015.8 |
| 20260505090142 | 51 | 314 | 3.0 | 3.0 | 0.00 | 0.00 | 0.00 | 39 | 1016.0 |
| 20260505085639 | 51 | 252 | 1.0 | 5.0 | 0.00 | 0.00 | 0.00 | 39 | 1015.8 |
| 20260505085137 | 51 | 320 | 0.0 | 1.0 | 0.00 | 0.00 | 0.00 | 38 | 1016.1 |
| 20260505084634 | 51 | 265 | 0.0 | 1.0 | 0.00 | 0.00 | 0.00 | 38 | 1016.2 |
| 20260505084133 | 51 | 291 | 1.0 | 1.0 | 0.00 | 0.00 | 0.00 | 38 | 1016.1 |
| 20260505083630 | 51 | 259 | 0.0 | 0.0 | 0.00 | 0.00 | 0.00 | 39 | 1016.2 |
| 20260505083126 | 51 | 310 | 1.0 | 1.0 | 0.00 | 0.00 | 0.00 | 38 | 1016.3 |
| 20260505082622 | 51 | 280 | 0.0 | 0.0 | 0.00 | 0.00 | 0.00 | 38 | 1016.3 |
| 20260505082120 | 52 | 285 | 0.0 | 1.0 | 0.00 | 0.00 | 0.00 | 37 | 1016.6 |
| 20260505081615 | 53 | 280 | 1.0 | 1.0 | 0.00 | 0.00 | 0.00 | 36 | 1016.8 |
| 20260505081113 | 53 | 232 | 1.0 | 1.0 | 0.00 | 0.00 | 0.00 | 36 | 1016.7 |
| 20260505080609 | 52 | 251 | 1.0 | 2.0 | 0.00 | 0.00 | 0.00 | 36 | 1016.7 |
| 20260505080106 | 52 | 257 | 0.0 | 0.0 | 0.00 | 0.00 | 0.00 | 36 | 1016.6 |
| 20260505075602 | 53 | 257 | 1.0 | 2.0 | 0.00 | 0.00 | 0.00 | 36 | 1016.7 |
| 20260505075059 | 53 | 262 | 0.0 | 1.0 | 0.00 | 0.00 | 0.00 | 35 | 1016.6 |
| 20260505074555 | 53 | 268 | 0.0 | 1.0 | 0.00 | 0.00 | 0.00 | 35 | 1016.7 |
| 20260505074053 | 54 | 284 | 1.0 | 2.0 | 0.00 | 0.00 | 0.00 | 34 | 1016.3 |
| 20260505073550 | 54 | 286 | 0.0 | 1.0 | 0.00 | 0.00 | 0.00 | 34 | 1016.6 |
| 20260505073049 | 54 | 324 | 2.0 | 3.0 | 0.00 | 0.00 | 0.00 | 34 | 1016.3 |
| 20260505072549 | 54 | 341 | 3.0 | 6.0 | 0.00 | 0.00 | 0.00 | 33 | 1016.5 |
| 20260505072046 | 55 | 292 | 2.0 | 2.0 | 0.00 | 0.00 | 0.00 | 33 | 1016.0 |
| 20260505071541 | 55 | 270 | 2.0 | 3.0 | 0.00 | 0.00 | 0.00 | 32 | 1016.1 |
| 20260505071040 | 56 | 330 | 4.0 | 6.0 | 0.00 | 0.00 | 0.00 | 31 | 1016.1 |
| 20260505070537 | 56 | 325 | 7.0 | 9.0 | 0.00 | 0.00 | 0.00 | 31 | 1016.2 |
| 20260505070033 | 56 | 352 | 5.0 | 8.0 | 0.00 | 0.00 | 0.00 | 31 | 1016.5 |
| 20260505065529 | 56 | 285 | 5.0 | 8.0 | 0.00 | 0.00 | 0.00 | 31 | 1016.6 |
| 20260505065025 | 57 | 249 | 6.0 | 10.0 | 0.00 | 0.00 | 0.00 | 31 | 1016.1 |
| 20260505064522 | 57 | 307 | 6.0 | 11.0 | 0.00 | 0.00 | 0.00 | 31 | 1016.0 |
| 20260505064021 | 57 | 328 | 4.0 | 8.0 | 0.00 | 0.00 | 0.00 | 31 | 1016.5 |
| 20260505063518 | 57 | 318 | 4.0 | 10.0 | 0.00 | 0.00 | 0.00 | 32 | 1016.2 |
| 20260505063013 | 56 | 331 | 4.0 | 5.0 | 0.00 | 0.00 | 0.00 | 33 | 1016.3 |
| 20260505062511 | 56 | 316 | 2.0 | 5.0 | 0.00 | 0.00 | 0.00 | 33 | 1016.2 |
| 20260505062008 | 56 | 294 | 3.0 | 5.0 | 0.00 | 0.00 | 0.00 | 33 | 1016.2 |
| 20260505061505 | 56 | 294 | 1.0 | 2.0 | 0.00 | 0.00 | 0.00 | 34 | 1016.2 |
| 20260505061003 | 56 | 278 | 1.0 | 3.0 | 0.00 | 0.00 | 0.00 | 33 | 1016.1 |
| 20260505060500 | 57 | 254 | 1.0 | 5.0 | 0.00 | 0.00 | 0.00 | 33 | 1016.3 |
| 20260505055956 | 57 | 267 | 2.0 | 3.0 | 0.00 | 0.00 | 0.00 | 33 | 1016.3 |
| 20260505055452 | 57 | 265 | 2.0 | 3.0 | 0.00 | 0.00 | 0.00 | 33 | 1016.5 |
| 20260505054949 | 57 | 246 | 2.0 | 3.0 | 0.00 | 0.00 | 0.00 | 32 | 1016.2 |
| 20260505054446 | 58 | 277 | 5.0 | 7.0 | 0.00 | 0.00 | 0.00 | 32 | 1016.1 |
| 20260505053944 | 57 | 248 | 3.0 | 6.0 | 0.00 | 0.00 | 0.00 | 32 | 1016.0 |
| 20260505053441 | 57 | 291 | 4.0 | 9.0 | 0.00 | 0.00 | 0.00 | 32 | 1016.1 |
| 20260505052938 | 58 | 274 | 3.0 | 5.0 | 0.00 | 0.00 | 0.00 | 32 | 1016.1 |
| 20260505052435 | 58 | 270 | 5.0 | 7.0 | 0.00 | 0.00 | 0.00 | 32 | 1016.1 |
| 20260505051932 | 58 | 251 | 5.0 | 9.0 | 0.00 | 0.00 | 0.00 | 32 | 1016.0 |
| 20260505051429 | 58 | 210 | 2.0 | 3.0 | 0.00 | 0.00 | 0.00 | 34 | 1015.8 |
| 20260505050927 | 58 | 271 | 1.0 | 5.0 | 0.00 | 0.00 | 0.00 | 33 | 1015.7 |
| 20260505050425 | 58 | 280 | 1.0 | 5.0 | 0.00 | 0.00 | 0.00 | 33 | 1015.8 |
| 20260505041352 | 57 | 267 | 0.0 | 0.0 | 0.00 | 0.00 | 0.00 | 32 | 1016.1 |
| 20260505040850 | 57 | 253 | 0.0 | 0.0 | 0.00 | 0.00 | 0.00 | 32 | 1016.1 |
| 20260505040347 | 58 | 268 | 0.0 | 0.0 | 0.00 | 0.00 | 0.00 | 31 | 1016.6 |
| 20260505035844 | 58 | 279 | 0.0 | 3.0 | 0.00 | 0.00 | 0.00 | 31 | 1016.5 |
| 20260505035339 | 58 | 326 | 2.0 | 2.0 | 0.00 | 0.00 | 0.00 | 31 | 1016.1 |
| 20260505034837 | 58 | 290 | 1.0 | 2.0 | 0.00 | 0.00 | 0.00 | 31 | 1016.3 |
| 20260505034333 | 58 | 346 | 2.0 | 3.0 | 0.00 | 0.00 | 0.00 | 30 | 1016.2 |
| 20260505033831 | 59 | 9 | 2.0 | 2.0 | 0.00 | 0.00 | 0.00 | 30 | 1016.2 |
| 20260505033327 | 59 | 267 | 0.0 | 2.0 | 0.00 | 0.00 | 0.00 | 30 | 1016.3 |
| 20260505032826 | 59 | 264 | 0.0 | 5.0 | 0.00 | 0.00 | 0.00 | 29 | 1016.1 |
| 20260505032322 | 59 | 250 | 2.0 | 3.0 | 0.00 | 0.00 | 0.00 | 29 | 1016.0 |
| 20260505031819 | 59 | 300 | 4.0 | 6.0 | 0.00 | 0.00 | 0.00 | 28 | 1016.0 |
| 20260505031315 | 60 | 303 | 2.0 | 3.0 | 0.00 | 0.00 | 0.00 | 28 | 1015.8 |
| 20260505030813 | 60 | 293 | 3.0 | 6.0 | 0.00 | 0.00 | 0.00 | 28 | 1015.7 |
| 20260505030310 | 60 | 305 | 3.0 | 5.0 | 0.00 | 0.00 | 0.00 | 27 | 1015.7 |
| 20260505025804 | 60 | 23 | 3.0 | 6.0 | 0.00 | 0.00 | 0.00 | 27 | 1016.0 |
| 20260505025304 | 60 | 305 | 4.0 | 5.0 | 0.00 | 0.00 | 0.00 | 27 | 1015.5 |
| 20260505024800 | 61 | 307 | 3.0 | 6.0 | 0.00 | 0.00 | 0.00 | 26 | 1015.5 |
| 20260505024258 | 61 | 324 | 2.0 | 6.0 | 0.00 | 0.00 | 0.00 | 26 | 1015.6 |
| 20260505023755 | 61 | 255 | 2.0 | 5.0 | 0.00 | 0.00 | 0.00 | 25 | 1015.0 |
| 20260505023252 | 61 | 258 | 2.0 | 8.0 | 0.00 | 0.00 | 0.00 | 25 | 1015.4 |
| 20260505022749 | 61 | 320 | 5.0 | 6.0 | 0.00 | 0.00 | 0.00 | 25 | 1015.2 |
| 20260505022246 | 61 | 315 | 7.0 | 10.0 | 0.00 | 0.00 | 0.00 | 24 | 1015.1 |
| 20260505021742 | 61 | 303 | 3.0 | 6.0 | 0.00 | 0.00 | 0.00 | 24 | 1015.2 |
| 20260505021240 | 62 | 296 | 6.0 | 10.0 | 0.00 | 0.00 | 0.00 | 24 | 1015.1 |
| 20260505020735 | 62 | 280 | 1.0 | 9.0 | 0.00 | 0.00 | 0.00 | 23 | 1015.1 |
| 20260505020231 | 62 | 287 | 4.0 | 6.0 | 0.00 | 0.00 | 0.00 | 23 | 1015.1 |
| 20260505015728 | 62 | 287 | 3.0 | 7.0 | 0.00 | 0.00 | 0.00 | 22 | 1015.1 |
| 20260505015225 | 62 | 213 | 5.0 | 13.0 | 0.00 | 0.00 | 0.00 | 22 | 1015.2 |
| 20260505014722 | 63 | 340 | 7.0 | 9.0 | 0.00 | 0.00 | 0.00 | 22 | 1015.2 |
| 20260505014220 | 63 | 270 | 6.0 | 13.0 | 0.00 | 0.00 | 0.00 | 22 | 1015.0 |
| 20260505013716 | 63 | 303 | 5.0 | 13.0 | 0.00 | 0.00 | 0.00 | 22 | 1015.0 |
| 20260505013213 | 63 | 301 | 7.0 | 9.0 | 0.00 | 0.00 | 0.00 | 21 | 1014.7 |
| 20260505012712 | 63 | 298 | 4.0 | 7.0 | 0.00 | 0.00 | 0.00 | 21 | 1014.7 |
| 20260505012208 | 63 | 284 | 3.0 | 6.0 | 0.00 | 0.00 | 0.00 | 21 | 1014.9 |
| 20260505011704 | 64 | 265 | 3.0 | 6.0 | 0.00 | 0.00 | 0.00 | 21 | 1015.0 |
| 20260505011201 | 64 | 285 | 4.0 | 8.0 | 0.00 | 0.00 | 0.00 | 21 | 1014.9 |
| 20260505010657 | 64 | 242 | 5.0 | 8.0 | 0.00 | 0.00 | 0.00 | 21 | 1015.0 |
| 20260505010154 | 64 | 277 | 6.0 | 9.0 | 0.00 | 0.00 | 0.00 | 21 | 1014.9 |
| 20260505005650 | 64 | 273 | 8.0 | 13.0 | 0.00 | 0.00 | 0.00 | 20 | 1014.9 |
| 20260505005147 | 64 | 309 | 7.0 | 9.0 | 0.00 | 0.00 | 0.00 | 20 | 1015.0 |
| 20260505004644 | 64 | 284 | 7.0 | 10.0 | 0.00 | 0.00 | 0.00 | 20 | 1014.9 |
| 20260505004140 | 65 | 285 | 4.0 | 10.0 | 0.00 | 0.00 | 0.00 | 20 | 1015.0 |
| 20260505003638 | 65 | 325 | 5.0 | 10.0 | 0.00 | 0.00 | 0.00 | 20 | 1015.1 |
| 20260505003135 | 65 | 301 | 9.0 | 14.0 | 0.00 | 0.00 | 0.00 | 19 | 1015.1 |
| 20260505002631 | 65 | 262 | 6.0 | 11.0 | 0.00 | 0.00 | 0.00 | 20 | 1014.9 |
| 20260505002129 | 65 | 281 | 6.0 | 9.0 | 0.00 | 0.00 | 0.00 | 20 | 1014.9 |
| 20260505001626 | 65 | 285 | 8.0 | 11.0 | 0.00 | 0.00 | 0.00 | 20 | 1014.9 |
| 20260505001124 | 65 | 278 | 7.0 | 9.0 | 0.00 | 0.00 | 0.00 | 20 | 1015.0 |
| 20260505000621 | 65 | 257 | 6.0 | 13.0 | 0.00 | 0.00 | 0.00 | 20 | 1015.2 |
| 20260505000119 | 65 | 281 | 6.0 | 9.0 | 0.00 | 0.00 | 0.00 | 20 | 1015.4 |
| 20260504235615 | 66 | 312 | 7.0 | 11.0 | 0.00 | 0.00 | 0.00 | 20 | 1015.4 |
| 20260504235111 | 66 | 266 | 5.0 | 10.0 | 0.00 | 0.00 | 0.00 | 21 | 1015.4 |
| 20260504234609 | 66 | 268 | 5.0 | 8.0 | 0.00 | 0.00 | 0.00 | 21 | 1015.1 |
| 20260504234106 | 65 | 260 | 5.0 | 9.0 | 0.00 | 0.00 | 0.00 | 21 | 1015.2 |
| 20260504233601 | 66 | 266 | 5.0 | 15.0 | 0.00 | 0.00 | 0.00 | 21 | 1015.2 |
| 20260504233058 | 65 | 261 | 5.0 | 8.0 | 0.00 | 0.00 | 0.00 | 21 | 1015.4 |
| 20260504232555 | 65 | 314 | 7.0 | 13.0 | 0.00 | 0.00 | 0.00 | 21 | 1015.2 |
| 20260504232053 | 66 | 313 | 6.0 | 8.0 | 0.00 | 0.00 | 0.00 | 21 | 1015.1 |
| 20260504231549 | 67 | 280 | 3.0 | 11.0 | 0.00 | 0.00 | 0.00 | 21 | 1015.2 |
| 20260504231045 | 67 | 277 | 6.0 | 8.0 | 0.00 | 0.00 | 0.00 | 21 | 1015.2 |
| 20260504230541 | 66 | 299 | 6.0 | 8.0 | 0.00 | 0.00 | 0.00 | 21 | 1015.2 |
| 20260504230041 | 67 | 262 | 11.0 | 15.0 | 0.00 | 0.00 | 0.00 | 21 | 1015.5 |
| 20260504225537 | 67 | 314 | 9.0 | 13.0 | 0.00 | 0.00 | 0.00 | 21 | 1015.6 |
| 20260504225034 | 67 | 246 | 5.0 | 11.0 | 0.00 | 0.00 | 0.00 | 21 | 1015.5 |
| 20260504224531 | 66 | 259 | 8.0 | 10.0 | 0.00 | 0.00 | 0.00 | 21 | 1015.8 |
| 20260504224028 | 66 | 224 | 7.0 | 13.0 | 0.00 | 0.00 | 0.00 | 21 | 1015.6 |
| 20260504223525 | 66 | 332 | 7.0 | 17.0 | 0.00 | 0.00 | 0.00 | 21 | 1015.6 |
| 20260504223020 | 66 | 259 | 8.0 | 11.0 | 0.00 | 0.00 | 0.00 | 21 | 1015.6 |
| 20260504222517 | 66 | 339 | 5.0 | 10.0 | 0.00 | 0.00 | 0.00 | 20 | 1015.7 |
| 20260504222015 | 66 | 309 | 7.0 | 9.0 | 0.00 | 0.00 | 0.00 | 20 | 1015.7 |
| 20260504221512 | 66 | 246 | 5.0 | 14.0 | 0.00 | 0.00 | 0.00 | 20 | 1015.8 |
| 20260504221009 | 66 | 261 | 3.0 | 7.0 | 0.00 | 0.00 | 0.00 | 20 | 1016.1 |
| 20260504220505 | 66 | 296 | 7.0 | 14.0 | 0.00 | 0.00 | 0.00 | 20 | 1016.3 |
| 20260504220002 | 66 | 252 | 4.0 | 16.0 | 0.00 | 0.00 | 0.00 | 20 | 1016.2 |
| 20260504215459 | 66 | 295 | 9.0 | 13.0 | 0.00 | 0.00 | 0.00 | 19 | 1016.3 |
| 20260504214956 | 66 | 275 | 13.0 | 17.0 | 0.00 | 0.00 | 0.00 | 18 | 1016.2 |
| 20260504214452 | 66 | 244 | 7.0 | 10.0 | 0.00 | 0.00 | 0.00 | 17 | 1016.3 |
| 20260504213949 | 67 | 221 | 9.0 | 15.0 | 0.00 | 0.00 | 0.00 | 17 | 1016.1 |
| 20260504213444 | 67 | 260 | 4.0 | 9.0 | 0.00 | 0.00 | 0.00 | 18 | 1016.1 |
| 20260504212942 | 67 | 314 | 5.0 | 10.0 | 0.00 | 0.00 | 0.00 | 17 | 1016.6 |
| 20260504212438 | 66 | 304 | 5.0 | 10.0 | 0.00 | 0.00 | 0.00 | 16 | 1016.6 |
| 20260504211936 | 67 | 230 | 9.0 | 14.0 | 0.00 | 0.00 | 0.00 | 16 | 1016.3 |
| 20260504211432 | 67 | 304 | 8.0 | 13.0 | 0.00 | 0.00 | 0.00 | 16 | 1016.5 |
| 20260504210930 | 66 | 210 | 6.0 | 8.0 | 0.00 | 0.00 | 0.00 | 17 | 1016.7 |
| 20260504210426 | 66 | 264 | 9.0 | 14.0 | 0.00 | 0.00 | 0.00 | 17 | 1016.8 |
| 20260504205923 | 67 | 257 | 6.0 | 16.0 | 0.00 | 0.00 | 0.00 | 17 | 1017.1 |
| 20260504205421 | 66 | 286 | 8.0 | 13.0 | 0.00 | 0.00 | 0.00 | 17 | 1017.0 |
| 20260504204919 | 67 | 288 | 8.0 | 10.0 | 0.00 | 0.00 | 0.00 | 17 | 1017.1 |
| 20260504204417 | 68 | 230 | 3.0 | 15.0 | 0.00 | 0.00 | 0.00 | 18 | 1017.2 |
| 20260504203916 | 67 | 238 | 9.0 | 11.0 | 0.00 | 0.00 | 0.00 | 19 | 1017.2 |
| 20260504203413 | 67 | 277 | 7.0 | 13.0 | 0.00 | 0.00 | 0.00 | 19 | 1017.4 |
| 20260504202909 | 65 | 232 | 4.0 | 15.0 | 0.00 | 0.00 | 0.00 | 20 | 1017.3 |
| 20260504202406 | 66 | 257 | 13.0 | 17.0 | 0.00 | 0.00 | 0.00 | 20 | 1017.0 |
| 20260504201902 | 66 | 314 | 6.0 | 11.0 | 0.00 | 0.00 | 0.00 | 21 | 1017.2 |
| 20260504201400 | 66 | 270 | 5.0 | 11.0 | 0.00 | 0.00 | 0.00 | 21 | 1017.4 |
| 20260504200857 | 66 | 229 | 6.0 | 13.0 | 0.00 | 0.00 | 0.00 | 21 | 1017.4 |
| 20260504200354 | 66 | 206 | 6.0 | 13.0 | 0.00 | 0.00 | 0.00 | 21 | 1017.3 |
| 20260504195850 | 68 | 325 | 12.0 | 16.0 | 0.00 | 0.00 | 0.00 | 21 | 1017.3 |
| 20260504195346 | 67 | 256 | 3.0 | 10.0 | 0.00 | 0.00 | 0.00 | 21 | 1017.2 |
| 20260504194843 | 66 | 262 | 8.0 | 11.0 | 0.00 | 0.00 | 0.00 | 22 | 1017.6 |
| 20260504194339 | 66 | 231 | 9.0 | 16.0 | 0.00 | 0.00 | 0.00 | 22 | 1017.6 |
| 20260504193835 | 66 | 218 | 4.0 | 10.0 | 0.00 | 0.00 | 0.00 | 22 | 1017.4 |
| 20260504193332 | 66 | 230 | 10.0 | 11.0 | 0.00 | 0.00 | 0.00 | 22 | 1017.7 |
| 20260504192831 | 65 | 310 | 6.0 | 10.0 | 0.00 | 0.00 | 0.00 | 23 | 1017.6 |
| 20260504192329 | 66 | 254 | 8.0 | 16.0 | 0.00 | 0.00 | 0.00 | 23 | 1017.7 |
| 20260504191827 | 65 | 250 | 5.0 | 13.0 | 0.00 | 0.00 | 0.00 | 24 | 1017.3 |
| 20260504191324 | 65 | 199 | 7.0 | 17.0 | 0.00 | 0.00 | 0.00 | 24 | 1017.7 |
| 20260504190819 | 66 | 175 | 7.0 | 13.0 | 0.00 | 0.00 | 0.00 | 23 | 1017.6 |
| 20260504190316 | 66 | 258 | 6.0 | 10.0 | 0.00 | 0.00 | 0.00 | 24 | 1017.6 |
| 20260504185812 | 65 | 235 | 4.0 | 11.0 | 0.00 | 0.00 | 0.00 | 24 | 1017.8 |
| 20260504185309 | 66 | 326 | 9.0 | 18.0 | 0.00 | 0.00 | 0.00 | 24 | 1017.9 |
| 20260504184805 | 65 | 236 | 3.0 | 5.0 | 0.00 | 0.00 | 0.00 | 24 | 1018.2 |
| 20260504184301 | 65 | 271 | 4.0 | 9.0 | 0.00 | 0.00 | 0.00 | 24 | 1017.9 |
| 20260504183757 | 65 | 242 | 9.0 | 11.0 | 0.00 | 0.00 | 0.00 | 25 | 1018.2 |
| 20260504183254 | 65 | 226 | 3.0 | 7.0 | 0.00 | 0.00 | 0.00 | 25 | 1017.9 |
| 20260504182752 | 64 | 264 | 10.0 | 13.0 | 0.00 | 0.00 | 0.00 | 24 | 1018.4 |
| 20260504182249 | 65 | 230 | 6.0 | 13.0 | 0.00 | 0.00 | 0.00 | 25 | 1017.8 |
| 20260504181747 | 63 | 294 | 3.0 | 6.0 | 0.00 | 0.00 | 0.00 | 26 | 1018.3 |
| 20260504181244 | 64 | 279 | 12.0 | 16.0 | 0.00 | 0.00 | 0.00 | 25 | 1018.4 |
| 20260504180743 | 63 | 223 | 4.0 | 9.0 | 0.00 | 0.00 | 0.00 | 26 | 1018.6 |
| 20260504180241 | 63 | 222 | 7.0 | 10.0 | 0.00 | 0.00 | 0.00 | 27 | 1018.4 |
| 20260504175739 | 64 | 235 | 8.0 | 15.0 | 0.00 | 0.00 | 0.00 | 27 | 1018.4 |
| 20260504175235 | 64 | 214 | 9.0 | 11.0 | 0.00 | 0.00 | 0.00 | 27 | 1018.6 |
| 20260504174733 | 64 | 319 | 6.0 | 11.0 | 0.00 | 0.00 | 0.00 | 27 | 1018.8 |
| 20260504174231 | 62 | 293 | 3.0 | 8.0 | 0.00 | 0.00 | 0.00 | 28 | 1019.1 |
| 20260504173727 | 64 | 292 | 6.0 | 11.0 | 0.00 | 0.00 | 0.00 | 26 | 1018.8 |
| 20260504173224 | 64 | 194 | 6.0 | 8.0 | 0.00 | 0.00 | 0.00 | 26 | 1018.8 |
| 20260504172721 | 63 | 245 | 5.0 | 7.0 | 0.00 | 0.00 | 0.00 | 30 | 1018.8 |
| 20260504172217 | 62 | 267 | 3.0 | 7.0 | 0.00 | 0.00 | 0.00 | 32 | 1018.8 |
| 20260504171714 | 62 | 213 | 1.0 | 5.0 | 0.00 | 0.00 | 0.00 | 33 | 1018.7 |